398  
NZUS52 KFFC 191410  
RWROBS  
WEATHER ROUNDUP FOR GEORGIA  
NATIONAL WEATHER SERVICE PEACHTREE CITY GA  
1000 AM EDT SAT AUG 19 2017  
 
NOTE: "FAIR" INDICATES FEW OR NO CLOUDS BELOW 12,000 FEET WITH NO  
SIGNIFICANT WEATHER AND/OR S TO VISIBILITY
.  
 
* = USE WITH CAUTION. THE STATIONS MARKED WITH AN ASTERISK MAY NOT  
REPORT WEATHER SUCH AS PRECIPITATION, FOG, OR THUNDER AND ARE NOT  
QUALITY CONTROLLED BY NWS.  
 
THE REMARK "TC" DENOTES TEMPERATURE READING IN DEGREES CELSIUS.  
 
GAZ001>058-191500-  
NORTH GEORGIA  
 
CITY SKY/WX TMP DP RH WIND PRES REMARKS
 
ATLANTA MOSUNNY 79 67 66 N5 30.03S HX 81  
ATHENS SUNNY 80 69 69 W3 30.00S HX 83  
CHAMBLEE SUNNY 78 67 68 CALM 30.03R HX 80  
PEACHTREE CITY MOSUNNY 79 69 71 VRB3 30.03S HX 81  
ROME SUNNY 79 69 71 N3 30.03R HX 81  
WEST ATLANTA MOSUNNY 78 69 73 CALM 30.02S HX 80  
GAINESVILLE SUNNY 78 65 63 NW8 30.05R HX 80  
CARTERSVILLE SUNNY 76 70 82 CALM 30.04R  
 
 
CITY SKY/WX TMP DP RH WIND PRES REMARKS
 
DALTON NOT AVBL  
LAWRENCEVILLE SUNNY 75 70 83 CALM 30.03S  
MARIETTA MOSUNNY 79 65 60 NW7 30.03R HX 81  
KENNESAW SUNNY 77 67 71 VRB6 30.04R  
WINDER SUNNY 81 68 65 CALM 30.04S HX 83  
CANTON FAIR 79 68 69 NW3 30.05R HX 81  
TOCCOA SUNNY 81 68 65 N3 30.02R HX 83  
CORNELIA FAIR 75 64 69 N7 30.05R  
CANON FAIR 79 67 66 CALM 30.00F HX 81  
JASPER FAIR 74 67 77 N5 30.08R  

 
 
GAZ059>098-102>109-191500-  
CENTRAL GEORGIA  
 
CITY SKY/WX TMP DP RH WIND PRES REMARKS
 
AUGUSTA-BUSH SUNNY 85 71 63 VRB3 29.95S HX 90  
AUGUSTA-DANIEL SUNNY 85 68 56 NW6 29.97F HX 88  
COLUMBUS SUNNY 83 69 62 CALM 30.02R HX 86  
MACON SUNNY 81 71 71 VRB3 30.00S HX 85  
ROBINS AFB SUNNY 81 71 71 VRB3 30.00S HX 85  
GREENSBORO SUNNY 81 70 69 CALM 29.98R HX 84  
THOMSON SUNNY 82 68 63 N6 30.03S HX 84  
SANDERSVILLE FAIR 77 68 72 CALM 30.00R  
THOMASTON SUNNY 81 64 57 CALM 30.04R HX 82  
BUTLER N/A 83 64 53 N3 30.04R HX 85  
 
 
CITY SKY/WX TMP DP RH WIND PRES REMARKS
 
LAGRANGE SUNNY 82 73 74 CALM 30.03S HX 86  
SYLVANIA SUNNY 85 75 70 CALM 29.98S HX 94  
MILLEDGEVILLE FAIR 81 70 69 W5 29.99S HX 84  
CARROLLTON FAIR 77 68 74 NW3 30.08S  
AMERICUS FAIR 82 64 54 NW3 30.03S HX 84  
CORDELE FAIR 87 69 54 N5 30.02S HX 91  

 
 
GAZ099>101-110>166-191500-  
SOUTH GEORGIA  
 
CITY SKY/WX TMP DP RH WIND PRES REMARKS
 
SAVANNAH MOSUNNY 85 76 74 W5 29.98R HX 94  
VALDOSTA MOSUNNY 81 76 84 CALM 30.01R HX 87  
ALMA SUNNY 87 72 60 N5 29.99S HX 93  
ST SIMONS CLOUDY 80 77 90 SW7 29.99R HX 87  
FT STEWART MOSUNNY 84 73 69 W3 29.96R HX 91  
ALBANY SUNNY 85 73 67 NW3 30.02S HX 91  
HUNTER AFB LGT RAIN 84 75 74 W3 29.95R HX 92  
MOODY AFB SUNNY 84 74 72 N3 29.99R HX 92  
BRUNSWICK CLOUDY 81 73 78 SW3 30.00S HX 85  
 
 
CITY SKY/WX TMP DP RH WIND PRES REMARKS
 
BAINBRIDGE SUNNY 86 79 79 E3 30.01R HX 99  
MOULTRIE SUNNY 86 72 62 CALM 30.02R HX 92  
VIDALIA SUNNY 86 72 62 CALM 29.99S HX 92  
WAYCROSS PTSUNNY 82 76 81 SW5 30.00S HX 90  
DOUGLAS PTSUNNY 82 70 65 CALM 30.01S HX 86  
TIFTON FAIR 83 72 69 CALM 30.01R HX 89  
HAZELHURST FAIR 86 65 50 CALM 29.99S HX 88  

 
 
 
CLICK HERE TO GO TO PREVIOUS BULLETINS.

The Nexlab GA Page Main Text Page